Left ArrowRight Arrow

34.74481, -87.66753

Hourly Observations for July 30, 2015

Temp ( °F °C ) Dew Point ( °F °C ) Humidity (%) Winds ( mph kmh ) Pressure ( in mb ) Visibility ( mi km ) Precip ( " mm )
12:53 am 00:53 Mostly Clear 78 25.6 75 23.9 90 90 WNW 3 6 30.02 1017 10 16 0.00 0.00
1:53 am 01:53 Clear 76 24.4 73 22.8 91 91 Calm 30.00 1016 10 16 0.00 0.00
2:53 am 02:53 Clear 76 24.4 73 22.8 91 91 WSW 3 6 29.99 1016 10 16 0.00 0.00
3:53 am 03:53 Clear 76 24.4 73 22.8 91 91 Calm 29.99 1016 10 16 0.00 0.00
4:53 am 04:53 Clear 76 24.4 73 22.8 91 91 WNW 6 9 29.99 1016 10 16 0.00 0.00
5:53 am 05:53 Clear 76 24.4 73 22.8 91 91 N 6 9 30.01 1016 10 16 0.00 0.00
6:53 am 06:53 Sunny 77 25 72 22.2 85 85 N 7 11 30.03 1017 10 16 0.00 0.00
7:53 am 07:53 Mostly Sunny 79 26.1 73 22.8 82 82 N 8 13 30.05 1018 10 16 0.00 0.00
8:42 am 08:42 Mostly Cloudy 82 27.8 74 23.3 77 77 VRB 7 11 30.06 1018 10 16 0.00 0.00
8:53 am 08:53 Mostly Cloudy 82 27.8 74 23.3 77 77 VRB 7 11 30.06 1018 10 16 0.00 0.00
9:53 am 09:53 Mostly Cloudy 83 28.3 73 22.8 72 72 NE 7 11 30.06 1018 10 16 0.00 0.00
10:53 am 10:53 Mostly Cloudy 85 29.4 73 22.8 68 68 N 8 13 30.07 1018 10 16 0.00 0.00
11:53 am 11:53 Partly Cloudy 87 30.6 73 22.8 63 63 VRB 5 7 30.06 1018 10 16 0.00 0.00
12:53 pm 12:53 Mostly Cloudy 88 31.1 73 22.8 61 61 VRB 6 9 30.06 1018 10 16 0.00 0.00
1:53 pm 13:53 Mostly Cloudy 89 31.7 73 22.8 59 59 VRB 5 7 30.05 1018 10 16 0.00 0.00
2:53 pm 14:53 Mostly Sunny 90 32.2 71 21.7 54 54 VRB 7 11 30.03 1017 10 16 0.00 0.00
3:53 pm 15:53 Sunny 90 32.2 67 19.4 47 47 N 8 13 30.01 1016 10 16 0.00 0.00
4:53 pm 16:53 Sunny 89 31.7 60 15.6 38 38 N 9 15 29.99 1016 10 16 0.00 0.00
5:53 pm 17:53 Sunny 87 30.6 62 16.7 43 43 N 9 15 29.99 1016 10 16 0.00 0.00
6:53 pm 18:53 Sunny 85 29.4 62 16.7 46 46 N 6 9 30.01 1016 10 16 0.00 0.00
7:53 pm 19:53 Sunny 81 27.2 62 16.7 53 53 N 6 9 30.02 1017 10 16 0.00 0.00
8:53 pm 20:53 Clear 78 25.6 63 17.2 60 60 N 5 7 30.04 1017 10 16 0.00 0.00
9:53 pm 21:53 Clear 77 25 63 17.2 62 62 N 5 7 30.06 1018 10 16 0.00 0.00
10:53 pm 22:53 Clear 75 23.9 64 17.8 69 69 N 6 9 30.06 1018 10 16 0.00 0.00
11:53 pm 23:53 Clear 75 23.9 63 17.2 66 66 N 8 13 30.05 1018 10 16 0.00 0.00

Powered by Vaisala Xweather